Погода в Гарде

Италия     45°34′51″N   10°43′04″E
темп.,
°C
ветер,
м/с
пор.,
м/с
влажн.,
%
обл.,
%
осадки,
мм/ч
давл.,
гПа
погр.,
м
26 января, вт
вт2601:00+5ссв674458 0.0 1012235
04:00+4ссв674436 0.0 1014231
07:00+4ссв684318 0.0 1016276
10:00+5с57390 0.0 1017344
13:00+7ссз23330 0.0 1017546
16:00+7сз45440 0.0 1017413
19:00+5с45460 0.0 1020261
22:00+5ссв77460 0.0 1021272
27 января, ср
ср2701:00+4ссв66440 0.0 1021275
04:00+3ссв56473 0.0 1019250
07:00+3св55482 0.0 1019273
10:00+3всв334439 0.0 1018321
13:00+4ю214453 0.0 1016344
16:00+4ююз1143100 0.0 1015300
19:00+4зсз114775 0.0 1017172
22:00+4сз124869 0.0 1017318
28 января, чт
чт2801:00+4с125181 0.0 1017161
04:00+4сз125546 0.0 1016335
07:00+3в125838 0.0 1015152
10:00+3юв225822 0.0 1015195
13:00+4юв225461 0.0 1013326
16:00+5ююв115587 0.0 1012338
19:00+4ююз115968 0.0 1013324
22:00+4юз22641 0.0 1013127
29 января, пт
пт2901:00+3з117017 0.0 1012133
04:00+3юв2275100 0.0 1011140
07:00+2юв3476100 0.0 1010197
10:00+3вюв2365100 0.0 1010239
13:00+5всв116385 0.0 1008297
16:00+5ю126450 0.0 1006312
19:00+5зюз116848 0.0 1007161
22:00+5з337519 0.0 1008215
30 января, сб
сб3001:00+5з347910 0.0 1008185
04:00+6зсз34750 0.0 1007157
07:00+8с57530 0.0 1006182
10:00+8всв24510 0.0 1006273
13:00+6ююв11670 0.0 1005124
16:00+8зсз01590 0.0 100591
19:00+7в116133 0.0 1007102
22:00+7зюз016386 0.0 100972